Flag for Germany Weather past 2 weeks in Limburg an der Lahn, Hesse, Germany

Now
70 °F

Partly cloudy.


Feels Like: 70 °F
Forecast: 51 / 68 °F
Wind: 8 mph from North

Location: Wiesbaden Airport

Current Time: Sep 1, 2015 at 4:31:50 AM

Latest Report: Sep 1, 2015 at 3:58 AM


Visibility: N/A

Pressure: 29.81 "Hg

Humidity: 78%

Dew point: 63 °F

Location of Limburg an der LahnLocation

Historic Weather in Limburg an der Lahn — Graph

°F

Limburg an der Lahn temperature yesterday

Maximum temperature yesterday: 93 °F (at 3:58 PM)
Minimum temperature yesterday: 67 °F (at 5:58 AM)
Average temperature yesterday: 80 °F

Past Weeks' High & Low Weather Summary

 TemperatureHumidityPressure
High93 °F (Aug 31, 3:58 PM)100% (Aug 23, 8:58 PM)30.29 "Hg (Aug 23, 8:58 PM)
Low51 °F (Aug 19, 5:58 AM)24% (Aug 22, 4:58 PM)29.66 "Hg (Aug 23, 6:58 PM)
Average68 °F69%30.00 "Hg
* Reported Aug 17 2:58 AM — Sep 1 2:58 AM, Limburg an der Lahn, Weather by CustomWeather, © 2015

Note: Actual official high and low records may vary slightly from our data, if they occured in-between our weather recording intervals... More about our weather records

Advertising

Limburg an der Lahn weather history for previous 24 hours

 ConditionsComfort  
Time TempWeatherWind HumidityBarometerVisibility
2:58 AM
Tue, Sep 1
72 °FPassing clouds.5 mph73%29.81 "HgN/A
1:58 AM74 °FPassing clouds.8 mph69%29.82 "HgN/A
12:58 AM70 °FClear.3 mph69%29.81 "HgN/A
10:58 PM
Mon, Aug 31
76 °FPassing clouds.3 mph54%29.80 "HgN/A
9:58 PM79 °FPassing clouds.7 mph47%29.79 "HgN/A
8:58 PM82 °FSunny.6 mph43%29.80 "HgN/A
7:58 PM86 °FSunny.14 mph35%29.79 "HgN/A
6:58 PM90 °FSunny.15 mph29%29.79 "HgN/A
5:58 PM92 °FSunny.17 mph25%29.79 "HgN/A
4:58 PM93 °FSunny.14 mph26%29.80 "HgN/A
3:58 PM93 °FSunny.13 mph28%29.82 "HgN/A
2:58 PM91 °FSunny.13 mph28%29.85 "HgN/A
1:58 PM90 °FSunny.15 mph28%29.87 "HgN/A
12:58 PM88 °FSunny.14 mph32%29.88 "HgN/A
11:58 AM84 °FSunny.10 mph40%29.90 "HgN/A
10:58 AM81 °FSunny.8 mph54%29.93 "HgN/A
9:58 AM76 °FSunny.5 mph72%29.93 "HgN/A
8:58 AM73 °FSunny.1 mph82%29.94 "HgN/A
7:58 AM69 °FSunny.No wind91%29.94 "HgN/A
6:58 AM68 °FClear.3 mph88%29.95 "HgN/A
5:58 AM67 °FPassing clouds.2 mph92%29.94 "HgN/A
4:58 AM69 °FPassing clouds.No wind87%29.95 "HgN/A
Weather by CustomWeather, © 2015

See weather overviewHow to use our weather pages